| time (UTC) | temp F | wind direction | speed MPH | gust MPH | rain 1hr in | rain 24hr in | rain mn in | humidity % | barometer mb |
| 20260902203258 | 70 | 350 | 2.0 | 3.0 | 0.00 | 0.01 | 0.01 | 76 | 1020.7 |
| 20260902202759 | 70 | 350 | 2.0 | 3.0 | 0.00 | 0.01 | 0.01 | 75 | 1020.6 |
| 20260902201759 | 70 | 0 | 2.0 | 3.0 | 0.00 | 0.01 | 0.01 | 75 | 1020.6 |
| 20260902201259 | 71 | 0 | 2.0 | 2.0 | 0.00 | 0.01 | 0.01 | 75 | 1020.5 |
| 20260902200258 | 71 | 359 | 2.0 | 5.0 | 0.00 | 0.01 | 0.01 | 74 | 1020.5 |
| 20260902195758 | 71 | 357 | 2.0 | 6.0 | 0.00 | 0.01 | 0.01 | 74 | 1020.4 |
| 20260902195258 | 71 | 8 | 2.0 | 6.0 | 0.00 | 0.01 | 0.01 | 74 | 1020.4 |
| 20260902194758 | 71 | 354 | 2.0 | 5.0 | 0.00 | 0.01 | 0.01 | 74 | 1020.4 |
| 20260902194258 | 71 | 8 | 2.0 | 3.0 | 0.00 | 0.01 | 0.01 | 74 | 1020.3 |
| 20260902193758 | 71 | 7 | 2.0 | 5.0 | 0.00 | 0.01 | 0.01 | 75 | 1020.3 |
| 20260902193259 | 71 | 0 | 2.0 | 7.0 | 0.00 | 0.01 | 0.01 | 75 | 1020.3 |
| 20260902192758 | 71 | 357 | 2.0 | 7.0 | 0.00 | 0.01 | 0.01 | 75 | 1020.2 |
| 20260902192259 | 71 | 0 | 2.0 | 6.0 | 0.00 | 0.01 | 0.01 | 75 | 1020.2 |
| 20260902191759 | 71 | 24 | 2.0 | 6.0 | 0.00 | 0.01 | 0.01 | 76 | 1020.2 |
| 20260902190758 | 71 | 116 | 3.0 | 6.0 | 0.00 | 0.01 | 0.01 | 78 | 1019.8 |
| 20260902190259 | 71 | 47 | 3.0 | 6.0 | 0.00 | 0.01 | 0.01 | 77 | 1019.8 |
| 20260902185759 | 71 | 14 | 3.0 | 7.0 | 0.00 | 0.01 | 0.01 | 78 | 1019.8 |
| 20260902184759 | 71 | 6 | 2.0 | 7.0 | 0.01 | 0.01 | 0.01 | 78 | 1019.8 |
| 20260902183259 | 71 | 285 | 3.0 | 5.0 | 0.01 | 0.01 | 0.01 | 80 | 1019.6 |
| 20260902182758 | 71 | 47 | 3.0 | 7.0 | 0.01 | 0.01 | 0.01 | 80 | 1019.4 |
| 20260902182259 | 71 | 60 | 3.0 | 7.0 | 0.01 | 0.01 | 0.01 | 79 | 1019.4 |
| 20260902181759 | 72 | 3 | 3.0 | 6.0 | 0.01 | 0.01 | 0.01 | 78 | 1019.4 |
| 20260902181258 | 73 | 357 | 2.0 | 6.0 | 0.01 | 0.01 | 0.01 | 76 | 1019.2 |
| 20260902180759 | 74 | 74 | 3.0 | 5.0 | 0.01 | 0.01 | 0.01 | 76 | 1019.2 |
| 20260902180259 | 74 | 54 | 3.0 | 6.0 | 0.01 | 0.01 | 0.01 | 71 | 1019.2 |
| 20260902175758 | 76 | 357 | 3.0 | 7.0 | 0.01 | 0.01 | 0.01 | 71 | 1019.1 |
| 20260902174759 | 78 | 192 | 2.0 | 6.0 | 0.00 | 0.00 | 0.00 | 64 | 1019.1 |
| 20260902174259 | 78 | 64 | 2.0 | 3.0 | 0.00 | 0.00 | 0.00 | 61 | 1018.9 |
| 20260902173759 | 79 | 41 | 2.0 | 6.0 | 0.00 | 0.00 | 0.00 | 58 | 1018.9 |
| 20260902173259 | 79 | 27 | 1.0 | 6.0 | 0.00 | 0.00 | 0.00 | 56 | 1018.9 |
| 20260902172259 | 80 | 12 | 0.0 | 2.0 | 0.00 | 0.00 | 0.00 | 56 | 1018.9 |
| 20260902171759 | 81 | 5 | 1.0 | 2.0 | 0.00 | 0.00 | 0.00 | 55 | 1018.9 |
| 20260902171300 | 81 | 5 | 2.0 | 3.0 | 0.00 | 0.00 | 0.00 | 54 | 1018.7 |
| 20260902170759 | 82 | 5 | 2.0 | 3.0 | 0.00 | 0.00 | 0.00 | 52 | 1018.7 |
| 20260902170259 | 82 | 39 | 1.0 | 3.0 | 0.00 | 0.00 | 0.00 | 53 | 1018.7 |
| 20260902165759 | 83 | 63 | 2.0 | 3.0 | 0.00 | 0.00 | 0.00 | 52 | 1018.5 |
| 20260902165259 | 84 | 63 | 2.0 | 3.0 | 0.00 | 0.00 | 0.00 | 51 | 1018.5 |
| 20260902164759 | 84 | 71 | 2.0 | 3.0 | 0.00 | 0.00 | 0.00 | 52 | 1018.5 |
| 20260902164259 | 85 | 67 | 2.0 | 5.0 | 0.00 | 0.00 | 0.00 | 50 | 1018.5 |
| 20260902163759 | 85 | 100 | 2.0 | 5.0 | 0.00 | 0.00 | 0.00 | 46 | 1018.5 |
| 20260902163259 | 86 | 162 | 2.0 | 5.0 | 0.00 | 0.00 | 0.00 | 46 | 1018.5 |
| 20260902162759 | 86 | 195 | 2.0 | 5.0 | 0.00 | 0.00 | 0.00 | 44 | 1018.4 |
| 20260902162259 | 86 | 204 | 2.0 | 3.0 | 0.00 | 0.00 | 0.00 | 47 | 1018.4 |
| 20260902160800 | 85 | 298 | 2.0 | 6.0 | 0.00 | 0.00 | 0.00 | 45 | 1018.3 |
| 20260902155759 | 86 | 352 | 2.0 | 6.0 | 0.00 | 0.00 | 0.00 | 43 | 1018.4 |
| 20260902155259 | 86 | 196 | 2.0 | 8.0 | 0.00 | 0.00 | 0.00 | 43 | 1018.4 |
| 20260902154259 | 87 | 203 | 2.0 | 7.0 | 0.00 | 0.00 | 0.00 | 42 | 1018.4 |
| 20260902153759 | 87 | 158 | 2.0 | 7.0 | 0.00 | 0.00 | 0.00 | 43 | 1018.4 |
| 20260902153300 | 87 | 97 | 2.0 | 5.0 | 0.00 | 0.00 | 0.00 | 42 | 1018.4 |
| 20260902152759 | 87 | 98 | 2.0 | 5.0 | 0.00 | 0.00 | 0.00 | 42 | 1018.5 |
| 20260902152259 | 88 | 43 | 2.0 | 6.0 | 0.00 | 0.00 | 0.00 | 42 | 1018.5 |
| 20260902151759 | 88 | 217 | 2.0 | 6.0 | 0.00 | 0.00 | 0.00 | 42 | 1018.5 |
| 20260902151300 | 88 | 207 | 2.0 | 6.0 | 0.00 | 0.00 | 0.00 | 41 | 1018.7 |
| 20260902150759 | 88 | 74 | 2.0 | 6.0 | 0.00 | 0.00 | 0.00 | 42 | 1018.7 |
| 20260902150301 | 88 | 49 | 2.0 | 6.0 | 0.00 | 0.00 | 0.00 | 41 | 1018.7 |
| 20260902145759 | 88 | 72 | 2.0 | 6.0 | 0.00 | 0.00 | 0.00 | 42 | 1018.6 |
| 20260902145301 | 87 | 350 | 2.0 | 6.0 | 0.00 | 0.00 | 0.00 | 43 | 1018.6 |
| 20260902144800 | 87 | 89 | 2.0 | 6.0 | 0.00 | 0.00 | 0.00 | 42 | 1018.6 |
| 20260902144300 | 87 | 162 | 2.0 | 6.0 | 0.00 | 0.00 | 0.00 | 42 | 1018.7 |
| 20260902143759 | 87 | 196 | 2.0 | 6.0 | 0.00 | 0.00 | 0.00 | 42 | 1018.7 |
| 20260902142759 | 87 | 186 | 2.0 | 7.0 | 0.00 | 0.00 | 0.00 | 43 | 1019.0 |
| 20260902142300 | 87 | 32 | 2.0 | 7.0 | 0.00 | 0.00 | 0.00 | 42 | 1019.0 |
| 20260902141759 | 87 | 11 | 3.0 | 7.0 | 0.00 | 0.00 | 0.00 | 43 | 1019.0 |
| 20260902140759 | 87 | 180 | 3.0 | 7.0 | 0.00 | 0.00 | 0.00 | 42 | 1019.1 |
| 20260902140259 | 87 | 129 | 2.0 | 7.0 | 0.00 | 0.00 | 0.00 | 42 | 1019.1 |
| 20260902135801 | 87 | 161 | 2.0 | 7.0 | 0.00 | 0.00 | 0.00 | 44 | 1019.0 |
| 20260902135300 | 86 | 357 | 2.0 | 7.0 | 0.00 | 0.00 | 0.00 | 43 | 1019.0 |
| 20260902134800 | 86 | 30 | 2.0 | 7.0 | 0.00 | 0.00 | 0.00 | 44 | 1019.0 |
| 20260902134259 | 86 | 200 | 2.0 | 7.0 | 0.00 | 0.00 | 0.00 | 44 | 1019.2 |
| 20260902133759 | 86 | 295 | 3.0 | 6.0 | 0.00 | 0.00 | 0.00 | 44 | 1019.2 |
| 20260902133300 | 86 | 149 | 3.0 | 8.0 | 0.00 | 0.00 | 0.00 | 44 | 1019.2 |
| 20260902132800 | 86 | 231 | 3.0 | 8.0 | 0.00 | 0.00 | 0.00 | 44 | 1019.2 |
| 20260902132259 | 85 | 176 | 2.0 | 7.0 | 0.00 | 0.00 | 0.00 | 44 | 1019.2 |
| 20260902131300 | 85 | 335 | 2.0 | 6.0 | 0.00 | 0.00 | 0.00 | 45 | 1019.2 |
| 20260902130800 | 85 | 118 | 2.0 | 5.0 | 0.00 | 0.00 | 0.00 | 47 | 1019.2 |
| 20260902125800 | 85 | 184 | 2.0 | 5.0 | 0.00 | 0.00 | 0.00 | 50 | 1019.3 |
| 20260902125300 | 85 | 179 | 2.0 | 3.0 | 0.00 | 0.00 | 0.00 | 47 | 1019.3 |
| 20260902124759 | 84 | 193 | 2.0 | 3.0 | 0.00 | 0.00 | 0.00 | 49 | 1019.3 |
| 20260902124300 | 84 | 262 | 2.0 | 6.0 | 0.00 | 0.00 | 0.00 | 49 | 1019.5 |
| 20260902123759 | 84 | 206 | 2.0 | 6.0 | 0.00 | 0.00 | 0.00 | 47 | 1019.5 |
| 20260902123300 | 84 | 236 | 2.0 | 6.0 | 0.00 | 0.00 | 0.00 | 50 | 1019.5 |
| 20260902122759 | 84 | 18 | 2.0 | 6.0 | 0.00 | 0.00 | 0.00 | 50 | 1019.7 |
| 20260902122259 | 83 | 349 | 2.0 | 5.0 | 0.00 | 0.00 | 0.00 | 48 | 1019.7 |
| 20260902121759 | 83 | 111 | 2.0 | 5.0 | 0.00 | 0.00 | 0.00 | 52 | 1019.7 |
| 20260902121301 | 82 | 275 | 2.0 | 5.0 | 0.00 | 0.00 | 0.00 | 51 | 1019.9 |
| 20260902120759 | 82 | 13 | 2.0 | 5.0 | 0.00 | 0.00 | 0.00 | 54 | 1019.9 |
| 20260902115759 | 81 | 309 | 2.0 | 6.0 | 0.00 | 0.00 | 0.00 | 55 | 1020.1 |
| 20260902114259 | 80 | 201 | 2.0 | 5.0 | 0.00 | 0.00 | 0.00 | 60 | 1020.1 |
| 20260902113759 | 80 | 202 | 2.0 | 3.0 | 0.00 | 0.00 | 0.00 | 61 | 1020.1 |
| 20260902112759 | 80 | 202 | 2.0 | 5.0 | 0.00 | 0.00 | 0.00 | 57 | 1020.3 |
| 20260902112300 | 80 | 201 | 2.0 | 5.0 | 0.00 | 0.00 | 0.00 | 57 | 1020.3 |
| 20260902111759 | 79 | 202 | 2.0 | 5.0 | 0.00 | 0.00 | 0.00 | 57 | 1020.3 |
| 20260902111259 | 79 | 202 | 2.0 | 5.0 | 0.00 | 0.00 | 0.00 | 57 | 1020.5 |
| 20260902110759 | 78 | 200 | 2.0 | 3.0 | 0.00 | 0.00 | 0.00 | 59 | 1020.5 |
| 20260902110259 | 78 | 200 | 2.0 | 3.0 | 0.00 | 0.00 | 0.00 | 61 | 1020.5 |
| 20260902105759 | 78 | 201 | 2.0 | 3.0 | 0.00 | 0.00 | 0.00 | 61 | 1020.9 |
| 20260902105259 | 78 | 200 | 2.0 | 5.0 | 0.00 | 0.00 | 0.00 | 61 | 1020.9 |
| 20260902104800 | 77 | 200 | 2.0 | 5.0 | 0.00 | 0.00 | 0.00 | 61 | 1020.9 |
| 20260902103759 | 77 | 201 | 2.0 | 5.0 | 0.00 | 0.00 | 0.00 | 60 | 1021.0 |
| 20260902103259 | 77 | 201 | 2.0 | 5.0 | 0.00 | 0.00 | 0.00 | 62 | 1021.0 |
| 20260902102759 | 77 | 203 | 2.0 | 5.0 | 0.00 | 0.00 | 0.00 | 61 | 1021.1 |
| 20260902102300 | 77 | 202 | 2.0 | 5.0 | 0.00 | 0.00 | 0.00 | 63 | 1021.1 |
| 20260902101759 | 77 | 196 | 2.0 | 5.0 | 0.00 | 0.00 | 0.00 | 63 | 1021.1 |
| 20260902101259 | 76 | 197 | 2.0 | 5.0 | 0.00 | 0.00 | 0.00 | 63 | 1021.2 |
| 20260902100300 | 76 | 186 | 2.0 | 5.0 | 0.00 | 0.00 | 0.00 | 63 | 1021.2 |
| 20260902095759 | 76 | 182 | 2.0 | 5.0 | 0.00 | 0.00 | 0.00 | 62 | 1021.1 |
| 20260902095259 | 76 | 213 | 2.0 | 5.0 | 0.00 | 0.00 | 0.00 | 63 | 1021.1 |
| 20260902093800 | 75 | 211 | 2.0 | 5.0 | 0.00 | 0.00 | 0.00 | 65 | 1021.3 |
| 20260902093300 | 74 | 211 | 2.0 | 5.0 | 0.00 | 0.00 | 0.00 | 65 | 1021.3 |
| 20260902092800 | 74 | 243 | 2.0 | 5.0 | 0.00 | 0.00 | 0.00 | 66 | 1021.6 |
| 20260902092259 | 74 | 238 | 2.0 | 5.0 | 0.00 | 0.00 | 0.00 | 67 | 1021.6 |
| 20260902091259 | 73 | 338 | 2.0 | 5.0 | 0.00 | 0.00 | 0.00 | 69 | 1021.5 |
| 20260902090259 | 72 | 7 | 2.0 | 3.0 | 0.00 | 0.00 | 0.00 | 70 | 1021.5 |
| 20260902085759 | 71 | 15 | 2.0 | 3.0 | 0.00 | 0.00 | 0.00 | 71 | 1021.7 |
| 20260902085259 | 71 | 235 | 1.0 | 3.0 | 0.00 | 0.00 | 0.00 | 73 | 1021.7 |
| 20260902084759 | 70 | 10 | 2.0 | 3.0 | 0.00 | 0.00 | 0.00 | 73 | 1021.7 |
| 20260902083800 | 69 | 11 | 2.0 | 2.0 | 0.00 | 0.00 | 0.00 | 74 | 1021.7 |
| 20260902083300 | 69 | 11 | 1.0 | 2.0 | 0.00 | 0.00 | 0.00 | 74 | 1021.7 |
| 20260902082759 | 69 | 11 | 2.0 | 3.0 | 0.00 | 0.00 | 0.00 | 75 | 1021.7 |
| 20260902082300 | 68 | 11 | 2.0 | 3.0 | 0.00 | 0.00 | 0.00 | 75 | 1021.7 |
| 20260902081759 | 68 | 11 | 2.0 | 5.0 | 0.00 | 0.00 | 0.00 | 76 | 1021.7 |
| 20260902081259 | 68 | 11 | 2.0 | 5.0 | 0.00 | 0.00 | 0.00 | 77 | 1021.8 |
| 20260902080759 | 67 | 357 | 2.0 | 5.0 | 0.00 | 0.00 | 0.00 | 78 | 1021.8 |
| 20260902075800 | 66 | 346 | 1.0 | 5.0 | 0.00 | 0.00 | 0.00 | 81 | 1021.8 |
| 20260902074759 | 66 | 299 | 1.0 | 3.0 | 0.00 | 0.00 | 0.00 | 82 | 1021.8 |
| 20260902074259 | 65 | 299 | 0.0 | 3.0 | 0.00 | 0.00 | 0.00 | 83 | 1021.8 |
| 20260902073259 | 65 | 280 | 1.0 | 2.0 | 0.00 | 0.00 | 0.00 | 85 | 1021.8 |
| 20260902072800 | 64 | 280 | 1.0 | 2.0 | 0.00 | 0.00 | 0.00 | 86 | 1021.8 |
| 20260902072300 | 64 | 280 | 0.0 | 2.0 | 0.00 | 0.00 | 0.00 | 87 | 1021.8 |
| 20260902071800 | 64 | 280 | 1.0 | 2.0 | 0.00 | 0.00 | 0.00 | 88 | 1021.8 |
| 20260902071300 | 64 | 280 | 2.0 | 2.0 | 0.00 | 0.00 | 0.00 | 88 | 1021.7 |
| 20260902070800 | 63 | 280 | 2.0 | 5.0 | 0.00 | 0.00 | 0.00 | 88 | 1021.7 |
| 20260902070300 | 63 | 280 | 2.0 | 5.0 | 0.00 | 0.00 | 0.00 | 88 | 1021.7 |
| 20260902065259 | 62 | 293 | 2.0 | 3.0 | 0.00 | 0.00 | 0.00 | 90 | 1021.7 |
| 20260902064800 | 62 | 39 | 2.0 | 5.0 | 0.00 | 0.00 | 0.00 | 90 | 1021.7 |
| 20260902063259 | 62 | 1 | 0.0 | 3.0 | 0.00 | 0.00 | 0.00 | 90 | 1021.8 |
| 20260902062800 | 62 | 1 | 1.0 | 2.0 | 0.00 | 0.00 | 0.00 | 90 | 1021.8 |
| 20260902062259 | 62 | 1 | 1.0 | 2.0 | 0.00 | 0.00 | 0.00 | 90 | 1021.8 |
| 20260902061800 | 62 | 1 | 1.0 | 2.0 | 0.00 | 0.00 | 0.00 | 90 | 1021.8 |
| 20260902060759 | 62 | 1 | 1.0 | 2.0 | 0.00 | 0.00 | 0.00 | 90 | 1021.7 |
| 20260902060259 | 62 | 1 | 1.0 | 3.0 | 0.00 | 0.00 | 0.00 | 90 | 1021.7 |
| 20260902055800 | 62 | 1 | 2.0 | 3.0 | 0.00 | 0.00 | 0.00 | 90 | 1021.7 |
| 20260902055300 | 62 | 2 | 2.0 | 5.0 | 0.00 | 0.00 | 0.00 | 90 | 1021.7 |
| 20260902054800 | 62 | 2 | 1.0 | 5.0 | 0.00 | 0.00 | 0.00 | 90 | 1021.7 |
| 20260902054259 | 62 | 359 | 0.0 | 5.0 | 0.00 | 0.00 | 0.00 | 90 | 1021.6 |
| 20260902053800 | 62 | 313 | 1.0 | 5.0 | 0.00 | 0.00 | 0.00 | 90 | 1021.6 |
| 20260902052800 | 62 | 8 | 2.0 | 3.0 | 0.00 | 0.00 | 0.00 | 90 | 1021.5 |
| 20260902052300 | 62 | 8 | 2.0 | 3.0 | 0.00 | 0.00 | 0.00 | 90 | 1021.5 |
| 20260902051800 | 62 | 351 | 2.0 | 5.0 | 0.00 | 0.00 | 0.00 | 90 | 1021.5 |
| 20260902051300 | 62 | 4 | 2.0 | 5.0 | 0.00 | 0.00 | 0.00 | 90 | 1021.5 |
| 20260902050800 | 62 | 5 | 1.0 | 3.0 | 0.00 | 0.00 | 0.00 | 90 | 1021.5 |
| 20260902045800 | 62 | 5 | 1.0 | 2.0 | 0.00 | 0.00 | 0.00 | 89 | 1021.3 |
| 20260902045300 | 62 | 5 | 1.0 | 2.0 | 0.00 | 0.00 | 0.00 | 89 | 1021.3 |
| 20260902044800 | 62 | 5 | 1.0 | 3.0 | 0.00 | 0.00 | 0.00 | 90 | 1021.3 |
| 20260902044300 | 62 | 27 | 0.0 | 3.0 | 0.00 | 0.00 | 0.00 | 90 | 1021.3 |
| 20260902043800 | 62 | 7 | 1.0 | 3.0 | 0.00 | 0.00 | 0.00 | 90 | 1021.3 |
| 20260902043259 | 62 | 291 | 1.0 | 3.0 | 0.00 | 0.00 | 0.00 | 89 | 1021.3 |
| 20260902042800 | 63 | 291 | 2.0 | 3.0 | 0.00 | 0.00 | 0.00 | 89 | 1021.2 |
| 20260902042300 | 63 | 296 | 2.0 | 3.0 | 0.00 | 0.00 | 0.00 | 89 | 1021.2 |
| 20260902041800 | 63 | 262 | 1.0 | 5.0 | 0.00 | 0.00 | 0.00 | 89 | 1021.2 |
| 20260902041300 | 63 | 283 | 0.0 | 5.0 | 0.00 | 0.00 | 0.00 | 89 | 1021.2 |
| 20260902040800 | 63 | 271 | 0.0 | 3.0 | 0.00 | 0.00 | 0.00 | 88 | 1021.2 |
| 20260902035759 | 63 | 8 | 1.0 | 3.0 | 0.00 | 0.00 | 0.00 | 88 | 1021.2 |
| 20260902035259 | 63 | 8 | 1.0 | 2.0 | 0.00 | 0.00 | 0.00 | 88 | 1021.2 |
| 20260902034300 | 63 | 8 | 2.0 | 5.0 | 0.00 | 0.00 | 0.00 | 88 | 1021.2 |
| 20260902033800 | 63 | 8 | 2.0 | 5.0 | 0.00 | 0.00 | 0.00 | 88 | 1021.2 |
| 20260902033259 | 63 | 6 | 1.0 | 5.0 | 0.00 | 0.00 | 0.00 | 87 | 1021.2 |
| 20260902032800 | 63 | 8 | 1.0 | 5.0 | 0.00 | 0.00 | 0.00 | 87 | 1021.0 |
| 20260902031800 | 64 | 305 | 0.0 | 0.0 | 0.00 | 0.00 | 0.00 | 87 | 1021.0 |
| 20260902031300 | 64 | 305 | 0.0 | 2.0 | 0.00 | 0.00 | 0.00 | 87 | 1021.2 |
| 20260902030800 | 64 | 305 | 1.0 | 2.0 | 0.00 | 0.00 | 0.00 | 86 | 1021.2 |
| 20260902025801 | 64 | 305 | 1.0 | 5.0 | 0.00 | 0.00 | 0.00 | 86 | 1021.2 |
| 20260902025300 | 64 | 305 | 0.0 | 5.0 | 0.00 | 0.00 | 0.00 | 85 | 1021.2 |
| 20260902024800 | 64 | 5 | 0.0 | 3.0 | 0.00 | 0.00 | 0.00 | 85 | 1021.2 |
| 20260902024259 | 64 | 5 | 0.0 | 2.0 | 0.00 | 0.00 | 0.00 | 86 | 1021.2 |
| 20260902023800 | 64 | 5 | 1.0 | 2.0 | 0.00 | 0.00 | 0.00 | 86 | 1021.2 |
| 20260902023300 | 64 | 5 | 1.0 | 2.0 | 0.00 | 0.00 | 0.00 | 85 | 1021.2 |
| 20260902022800 | 64 | 5 | 2.0 | 3.0 | 0.00 | 0.00 | 0.00 | 86 | 1021.2 |
| 20260902022300 | 64 | 5 | 2.0 | 3.0 | 0.00 | 0.00 | 0.00 | 86 | 1021.2 |
| 20260902021800 | 64 | 5 | 2.0 | 3.0 | 0.00 | 0.00 | 0.00 | 86 | 1021.2 |
| 20260902021300 | 64 | 5 | 1.0 | 3.0 | 0.00 | 0.00 | 0.00 | 86 | 1021.1 |
| 20260902020800 | 65 | 5 | 1.0 | 3.0 | 0.00 | 0.00 | 0.00 | 85 | 1021.1 |
| 20260902020301 | 65 | 9 | 1.0 | 3.0 | 0.00 | 0.00 | 0.00 | 84 | 1021.1 |
| 20260902015800 | 65 | 9 | 2.0 | 3.0 | 0.00 | 0.00 | 0.00 | 85 | 1021.1 |
| 20260902015300 | 65 | 9 | 2.0 | 5.0 | 0.00 | 0.00 | 0.00 | 85 | 1021.1 |
| 20260902014800 | 64 | 9 | 1.0 | 5.0 | 0.00 | 0.00 | 0.00 | 85 | 1021.1 |
| 20260902014300 | 64 | 9 | 0.0 | 3.0 | 0.00 | 0.00 | 0.00 | 85 | 1021.1 |
| 20260902013800 | 64 | 294 | 1.0 | 2.0 | 0.00 | 0.00 | 0.00 | 85 | 1021.1 |
| 20260902013300 | 64 | 294 | 1.0 | 2.0 | 0.00 | 0.00 | 0.00 | 85 | 1021.1 |
| 20260902012800 | 65 | 294 | 1.0 | 3.0 | 0.00 | 0.00 | 0.00 | 85 | 1021.1 |
| 20260902012300 | 65 | 294 | 0.0 | 3.0 | 0.00 | 0.00 | 0.00 | 86 | 1021.1 |
| 20260902011800 | 65 | 295 | 1.0 | 3.0 | 0.00 | 0.00 | 0.00 | 86 | 1021.1 |
| 20260902011300 | 65 | 308 | 1.0 | 3.0 | 0.00 | 0.00 | 0.00 | 85 | 1021.1 |
| 20260902010800 | 65 | 308 | 1.0 | 3.0 | 0.00 | 0.00 | 0.00 | 85 | 1021.1 |
| 20260902010300 | 65 | 307 | 0.0 | 3.0 | 0.00 | 0.00 | 0.00 | 84 | 1021.1 |
| 20260902005301 | 66 | 351 | 0.0 | 3.0 | 0.00 | 0.00 | 0.00 | 83 | 1021.1 |
| 20260902004800 | 66 | 351 | 0.0 | 3.0 | 0.00 | 0.00 | 0.00 | 83 | 1021.1 |
| 20260902003800 | 67 | 351 | 1.0 | 2.0 | 0.00 | 0.00 | 0.00 | 82 | 1021.3 |
| 20260902002800 | 67 | 351 | 2.0 | 3.0 | 0.00 | 0.00 | 0.00 | 81 | 1021.3 |
| 20260902002300 | 67 | 351 | 2.0 | 6.0 | 0.00 | 0.00 | 0.00 | 81 | 1021.3 |
| 20260902001300 | 67 | 5 | 1.0 | 5.0 | 0.00 | 0.00 | 0.00 | 81 | 1021.4 |
| 20260902000802 | 66 | 359 | 2.0 | 5.0 | 0.00 | 0.00 | 0.00 | 82 | 1021.4 |
| 20260902000304 | 66 | 0 | 2.0 | 3.0 | 0.00 | 0.00 | 0.00 | 82 | 1021.4 |
| 20260901235801 | 66 | 0 | 2.0 | 3.0 | 0.00 | 0.00 | 0.00 | 82 | 1021.5 |
| 20260901234800 | 66 | 0 | 2.0 | 5.0 | 0.00 | 0.00 | 0.00 | 83 | 1021.5 |
| 20260901234300 | 66 | 0 | 2.0 | 3.0 | 0.00 | 0.00 | 0.00 | 84 | 1021.5 |
| 20260901233800 | 66 | 0 | 1.0 | 5.0 | 0.00 | 0.00 | 0.00 | 84 | 1021.5 |
| 20260901233301 | 66 | 0 | 0.0 | 5.0 | 0.00 | 0.00 | 0.00 | 84 | 1021.5 |
| 20260901232800 | 66 | 0 | 0.0 | 2.0 | 0.00 | 0.00 | 0.00 | 85 | 1021.5 |
| 20260901232300 | 66 | 0 | 0.0 | 2.0 | 0.00 | 0.00 | 0.00 | 85 | 1021.5 |
| 20260901231801 | 66 | 0 | 0.0 | 2.0 | 0.00 | 0.00 | 0.00 | 85 | 1021.5 |
| 20260901231301 | 66 | 0 | 0.0 | 2.0 | 0.00 | 0.00 | 0.00 | 85 | 1021.4 |
| 20260901230800 | 66 | 0 | 1.0 | 2.0 | 0.00 | 0.00 | 0.00 | 84 | 1021.4 |
| 20260901230301 | 66 | 0 | 2.0 | 5.0 | 0.00 | 0.00 | 0.00 | 84 | 1021.4 |
| 20260901225800 | 66 | 0 | 2.0 | 5.0 | 0.00 | 0.00 | 0.00 | 84 | 1021.3 |
| 20260901224800 | 66 | 2 | 2.0 | 3.0 | 0.00 | 0.00 | 0.00 | 82 | 1021.3 |
| 20260901224300 | 66 | 1 | 1.0 | 3.0 | 0.00 | 0.00 | 0.00 | 81 | 1021.2 |
| 20260901223800 | 67 | 2 | 1.0 | 3.0 | 0.00 | 0.00 | 0.00 | 80 | 1021.2 |
| 20260901223301 | 67 | 2 | 0.0 | 3.0 | 0.00 | 0.00 | 0.00 | 81 | 1021.2 |
| 20260901222801 | 67 | 2 | 0.0 | 2.0 | 0.00 | 0.00 | 0.00 | 80 | 1021.0 |
| 20260901221801 | 67 | 2 | 0.0 | 2.0 | 0.00 | 0.00 | 0.00 | 80 | 1021.0 |
| 20260901221301 | 67 | 2 | 0.0 | 3.0 | 0.00 | 0.00 | 0.00 | 80 | 1021.0 |
| 20260901220846 | 67 | 2 | 0.0 | 3.0 | 0.00 | 0.00 | 0.00 | 79 | 1021.0 |
| 20260901220302 | 67 | 33 | 0.0 | 2.0 | 0.00 | 0.00 | 0.00 | 79 | 1021.0 |
| 20260901215300 | 67 | 33 | 0.0 | 2.0 | 0.00 | 0.00 | 0.00 | 78 | 1021.0 |
| 20260901214801 | 67 | 39 | 0.0 | 2.0 | 0.00 | 0.00 | 0.00 | 77 | 1021.0 |
| 20260901213800 | 68 | 39 | 1.0 | 1.0 | 0.00 | 0.00 | 0.00 | 77 | 1021.0 |
| 20260901213300 | 68 | 39 | 1.0 | 2.0 | 0.00 | 0.00 | 0.00 | 77 | 1021.0 |
| 20260901212801 | 68 | 39 | 2.0 | 3.0 | 0.00 | 0.00 | 0.00 | 77 | 1021.0 |
| 20260901212300 | 68 | 39 | 2.0 | 6.0 | 0.00 | 0.00 | 0.00 | 76 | 1021.0 |
| 20260901211801 | 68 | 46 | 1.0 | 6.0 | 0.00 | 0.00 | 0.00 | 76 | 1021.0 |
| 20260901211300 | 69 | 326 | 0.0 | 6.0 | 0.00 | 0.00 | 0.00 | 76 | 1020.8 |
| 20260901210801 | 69 | 301 | 1.0 | 3.0 | 0.00 | 0.00 | 0.00 | 75 | 1020.8 |
| 20260901210300 | 69 | 342 | 1.0 | 3.0 | 0.00 | 0.00 | 0.00 | 74 | 1020.8 |
| 20260901205301 | 69 | 278 | 1.0 | 2.0 | 0.00 | 0.00 | 0.00 | 74 | 1020.8 |
| 20260901204801 | 69 | 278 | 1.0 | 2.0 | 0.00 | 0.00 | 0.00 | 74 | 1020.8 |
| 20260901204301 | 69 | 278 | 1.0 | 2.0 | 0.00 | 0.00 | 0.00 | 73 | 1020.8 |
| 20260901203800 | 69 | 278 | 1.0 | 5.0 | 0.00 | 0.00 | 0.00 | 74 | 1020.8 |